Waarnemingen

Advertentie
Mijn weer
Florennes, België (6456): temperatuur & dauwpunt: 15.02.2019 15:00:00 - 21.02.2019 15:00:00 (CET)Florennes, België (6456): windsnelheid & windstoten: 15.02.2019 15:00:00 - 21.02.2019 15:00:00 (CET)Florennes, België (6456): windrichting: 15.02.2019 15:00:00 - 21.02.2019 15:00:00 (CET)Florennes, België (6456): luchtdruk: 15.02.2019 15:00:00 - 21.02.2019 15:00:00 (CET)Florennes, België (6456): zicht: 15.02.2019 15:00:00 - 21.02.2019 15:00:00 (CET)
Datum & Tijd tt [°C] td [°C] ff [km/u] ff [kn] fx [km/u] fx [kn] dd ppp [hPa] vv [km]
21.02.2019 15:00:00 12,1 5,4 14 8 22 12 W 1028,4 19
21.02.2019 14:00:00 12,1 5,4 11 6 25 14 WZW 1028,2 20
21.02.2019 13:00:00 11,4 6,0 14 8 - - W 1028,5 20
21.02.2019 12:00:00 11,0 6,2 11 6 25 14 ZW 1028,7 15
21.02.2019 11:00:00 8,5 5,1 14 8 22 12 ZZW 1028,7 15
21.02.2019 10:00:00 8,0 5,1 13 7 - - ZW 1028,5 10
21.02.2019 09:00:00 6,9 4,5 14 8 22 12 ZZW 1027,9 12
21.02.2019 08:00:00 6,4 4,3 14 8 18 10 ZZW 1027,2 12
21.02.2019 07:00:00 6,5 3,8 4 2 - - N 1026,9 12
21.02.2019 06:00:00 6,6 3,9 11 6 14 8 Z 1026,9 12
21.02.2019 05:00:00 6,9 3,9 7 4 18 10 Z 1027,0 13
21.02.2019 04:00:00 6,6 3,8 14 8 - - ZZW 1027,0 12
21.02.2019 03:00:00 5,9 3,4 4 2 14 8 N 1027,2 13
21.02.2019 02:00:00 6,2 3,3 11 6 14 8 ZZW 1026,7 13
21.02.2019 01:00:00 6,0 3,4 4 2 - - N 1026,7 13
21.02.2019 00:00:00 6,0 3,2 11 6 14 8 Z 1026,2 14
20.02.2019 23:00:00 7,3 3,8 7 4 14 8 Z 1026,0 15
20.02.2019 22:00:00 7,5 3,7 11 6 - - Z 1026,0 17
20.02.2019 21:00:00 7,5 3,7 7 4 11 6 ZZW 1025,7 17
20.02.2019 20:00:00 6,9 3,3 7 4 11 6 ZZW 1025,5 17
20.02.2019 19:00:00 7,4 2,9 7 4 - - ZZW 1025,0 19
20.02.2019 18:00:00 8,3 2,8 4 2 18 10 N 1024,7 20
20.02.2019 17:00:00 9,1 2,7 14 8 25 14 WZW 1024,4 20
20.02.2019 16:00:00 10,3 3,7 14 8 - - ZW 1024,2 20
20.02.2019 15:00:00 9,5 3,1 18 10 29 16 ZZW 1024,2 20
20.02.2019 14:00:00 9,1 3,1 18 10 32 18 ZW 1024,2 10
20.02.2019 13:00:00 8,6 4,6 18 10 - - ZW 1024,5 10
20.02.2019 12:00:00 7,2 4,0 14 8 25 14 ZZW 1024,9 9
20.02.2019 11:00:00 5,3 3,5 14 8 22 12 ZZW 1024,7 8
20.02.2019 10:00:00 4,1 3,3 14 8 - - ZZW 1024,7 6
20.02.2019 09:00:00 3,5 2,5 7 4 11 6 Z 1024,0 6
20.02.2019 08:00:00 2,5 1,5 7 4 14 8 Z 1023,6 5
20.02.2019 07:00:00 2,2 1,1 4 2 - - N 1023,2 5
20.02.2019 06:00:00 2,6 1,5 4 2 7 4 N 1023,2 6
20.02.2019 05:00:00 2,9 1,5 4 2 14 8 N 1022,7 5
20.02.2019 04:00:00 3,4 1,7 7 4 - - WZW 1022,7 7
20.02.2019 03:00:00 3,7 1,6 4 2 14 8 N 1023,1 10
20.02.2019 02:00:00 3,8 1,1 11 6 18 10 Z 1023,3 15
20.02.2019 01:00:00 4,2 1,3 11 6 - - ZZW 1023,2 15
20.02.2019 00:00:00 4,6 1,6 11 6 14 8 ZZW 1023,1 18
19.02.2019 23:00:00 4,8 1,4 11 6 14 8 ZZW 1023,0 20
19.02.2019 22:00:00 5,3 1,1 11 6 - - ZZW 1023,1 20
19.02.2019 21:00:00 5,5 1,0 7 4 11 6 ZZW 1022,7 20
19.02.2019 20:00:00 6,1 1,1 7 4 14 8 ZZW 1022,7 20
19.02.2019 19:00:00 6,9 1,4 11 6 - - ZW 1022,3 20
19.02.2019 18:00:00 7,0 1,2 7 4 22 12 WZW 1022,0 20
19.02.2019 17:00:00 8,1 0,9 18 10 25 14 W 1021,7 20
19.02.2019 16:00:00 9,1 1,1 18 10 - - W 1021,6 20
19.02.2019 15:00:00 9,6 1,1 18 10 32 18 W 1021,5 20
19.02.2019 14:00:00 8,5 1,3 22 12 29 16 W 1021,7 20
19.02.2019 13:00:00 8,2 1,7 22 12 - - WZW 1022,0 20
19.02.2019 12:00:00 7,5 2,0 18 10 29 16 W 1022,2 20
19.02.2019 11:00:00 6,9 3,2 14 8 25 14 WZW 1022,1 20
19.02.2019 10:00:00 5,8 4,2 14 8 - - WZW 1021,8 15
19.02.2019 09:00:00 5,0 3,9 14 8 29 16 WZW 1021,7 15
19.02.2019 08:00:00 5,4 4,4 18 10 25 14 W 1020,7 10
19.02.2019 07:00:00 5,5 4,6 11 6 - - WZW 1020,0 10
19.02.2019 06:00:00 5,5 4,6 7 4 14 8 WZW 1019,7 7
19.02.2019 05:00:00 5,5 4,6 7 4 11 6 ZW 1019,1 6
19.02.2019 04:00:00 5,6 4,7 7 4 - - WZW 1019,0 6
19.02.2019 03:00:00 5,5 4,2 11 6 18 10 W 1018,8 12
19.02.2019 02:00:00 6,6 4,5 7 4 14 8 WZW 1018,7 9
19.02.2019 01:00:00 7,0 3,8 11 6 - - WZW 1018,2 11
19.02.2019 00:00:00 7,5 1,6 18 10 25 14 ZZW 1017,8 20
18.02.2019 23:00:00 7,4 1,8 14 8 22 12 ZZW 1017,7 20
18.02.2019 22:00:00 7,1 1,7 11 6 - - Z 1017,5 20
18.02.2019 21:00:00 7,6 2,0 14 8 22 12 Z 1017,6 20
18.02.2019 20:00:00 8,5 2,2 14 8 22 12 Z 1017,2 20
18.02.2019 19:00:00 8,8 1,3 11 6 - - Z 1017,1 20
18.02.2019 18:00:00 10,2 0,8 11 6 25 14 Z 1016,7 20
18.02.2019 17:00:00 11,7 0,6 14 8 25 14 Z 1016,5 20
18.02.2019 16:00:00 12,8 0,0 18 10 - - Z 1016,3 20
18.02.2019 15:00:00 13,8 -0,8 18 10 22 12 ZZO 1016,2 20
18.02.2019 14:00:00 13,7 -0,3 11 6 18 10 Z 1016,7 20
18.02.2019 13:00:00 12,7 -0,1 11 6 - - Z 1017,6 20
18.02.2019 12:00:00 11,4 0,0 14 8 25 14 Z 1018,5 20
18.02.2019 11:00:00 9,6 -0,4 14 8 22 12 Z 1019,0 20
18.02.2019 10:00:00 7,3 -0,7 7 4 - - ZZO 1019,6 20
18.02.2019 09:00:00 6,5 -0,8 4 2 11 6 N 1019,7 20
18.02.2019 08:00:00 6,1 -1,3 7 4 14 8 O 1019,8 20
18.02.2019 07:00:00 6,0 -1,7 7 4 - - ZZO 1019,8 20
18.02.2019 06:00:00 5,9 -2,2 2 1 7 4 - 1020,1 10
18.02.2019 05:00:00 6,8 -2,4 4 2 14 8 N 1020,0 20
18.02.2019 04:00:00 6,9 -2,5 7 4 - - Z 1020,2 20
18.02.2019 03:00:00 7,4 -2,7 4 2 11 6 N 1020,6 20
18.02.2019 02:00:00 7,5 -3,5 7 4 11 6 Z 1020,7 20
18.02.2019 01:00:00 8,5 -3,8 7 4 - - Z 1020,7 20
18.02.2019 00:00:00 8,7 -3,4 11 6 14 8 Z 1020,7 20
17.02.2019 23:00:00 9,1 -3,0 11 6 14 8 Z 1020,7 20
17.02.2019 22:00:00 9,2 -3,0 7 4 - - Z 1021,1 20
17.02.2019 21:00:00 10,2 -3,1 11 6 14 8 Z 1020,7 20
17.02.2019 20:00:00 10,4 -3,6 11 6 18 10 Z 1020,7 20
17.02.2019 19:00:00 10,6 -3,9 14 8 - - Z 1020,3 20
17.02.2019 18:00:00 12,5 -4,0 14 8 29 16 Z 1019,7 20
17.02.2019 17:00:00 14,0 -3,3 18 10 29 16 Z 1019,3 20
17.02.2019 16:00:00 14,6 -4,0 22 12 - - Z 1019,6 20
17.02.2019 15:00:00 14,3 -3,7 22 12 32 18 ZZW 1020,1 20
17.02.2019 14:00:00 14,3 -2,0 14 8 36 19 Z 1020,2 20
17.02.2019 13:00:00 13,8 -2,2 22 12 - - Z 1020,6 20
17.02.2019 12:00:00 11,8 -1,6 18 10 29 16 Z 1021,1 20
17.02.2019 11:00:00 9,7 0,1 14 8 22 12 Z 1021,7 19
17.02.2019 10:00:00 6,8 0,8 7 4 - - ONO 1022,2 16
17.02.2019 09:00:00 5,6 0,3 7 4 14 8 ZZO 1022,7 18
17.02.2019 08:00:00 3,5 0,2 7 4 11 6 OZO 1023,1 13
17.02.2019 07:00:00 3,7 0,0 4 2 - - - 1023,1 13
17.02.2019 06:00:00 4,0 0,4 7 4 11 6 ZO 1023,5 12
17.02.2019 05:00:00 5,1 0,7 7 4 11 6 ZO 1023,6 16
17.02.2019 04:00:00 4,3 -0,3 4 2 - - N 1024,2 17
17.02.2019 03:00:00 7,1 1,0 7 4 11 6 ZZO 1024,2 20
17.02.2019 02:00:00 7,0 1,3 7 4 14 8 ZZO 1024,7 18
17.02.2019 01:00:00 8,3 1,0 7 4 - - Z 1024,7 20
17.02.2019 00:00:00 8,0 0,3 4 2 7 4 N 1025,2 20
16.02.2019 23:00:00 7,3 0,6 4 2 7 4 N 1025,7 20
16.02.2019 22:00:00 8,2 -0,2 4 2 - - N 1025,7 20
16.02.2019 21:00:00 8,5 0,7 4 2 11 6 N 1025,7 20
16.02.2019 20:00:00 9,6 0,2 7 4 14 8 Z 1025,7 20
16.02.2019 19:00:00 10,5 0,3 11 6 - - Z 1026,0 20
16.02.2019 18:00:00 11,6 0,2 7 4 11 6 ZW 1025,7 20
16.02.2019 17:00:00 13,4 0,3 7 4 14 8 ZW 1025,7 20
16.02.2019 16:00:00 14,1 -0,5 11 6 - - WZW 1025,9 20
16.02.2019 15:00:00 14,6 -0,4 11 6 22 12 ZZW 1026,0 20
16.02.2019 14:00:00 14,3 -0,3 14 8 22 12 ZZW 1026,2 20
16.02.2019 13:00:00 13,2 -0,4 11 6 - - ZW 1026,7 20
16.02.2019 12:00:00 11,2 0,3 11 6 22 12 ZW 1027,2 19
16.02.2019 11:00:00 9,2 0,7 7 4 22 12 Z 1027,4 19
16.02.2019 10:00:00 7,1 0,1 14 8 - - ZZW 1027,5 20
16.02.2019 09:00:00 5,6 -0,4 14 8 18 10 Z 1027,7 19
16.02.2019 08:00:00 5,0 -0,7 7 4 18 10 Z 1027,2 20
16.02.2019 07:00:00 5,2 -0,8 7 4 - - Z 1027,0 20
16.02.2019 06:00:00 5,8 -0,8 7 4 14 8 Z 1026,9 20
16.02.2019 05:00:00 5,2 -0,9 4 2 11 6 N 1027,4 20
16.02.2019 04:00:00 5,9 -0,9 4 2 - - N 1027,2 20
16.02.2019 03:00:00 6,9 -1,1 4 2 11 6 N 1027,4 20
16.02.2019 02:00:00 4,5 -1,4 7 4 11 6 N 1028,0 20
16.02.2019 01:00:00 4,9 -1,5 4 2 - - N 1028,0 20
16.02.2019 00:00:00 7,0 -1,2 7 4 7 4 O 1027,7 20
15.02.2019 23:00:00 8,5 -1,1 4 2 14 8 N 1027,7 20
15.02.2019 22:00:00 9,5 -1,4 7 4 - - ZZO 1028,0 20
15.02.2019 21:00:00 9,7 -1,9 4 2 11 6 N 1028,2 20
15.02.2019 20:00:00 10,1 -2,2 4 2 7 4 N 1028,4 20
15.02.2019 19:00:00 10,8 -2,8 4 2 - - N 1028,4 20
15.02.2019 18:00:00 13,4 -2,7 7 4 11 6 Z 1028,0 20
15.02.2019 17:00:00 15,0 -1,5 7 4 14 8 Z 1027,7 20
15.02.2019 16:00:00 15,8 -2,1 11 6 - - ZO 1028,2 20
15.02.2019 15:00:00 15,4 -1,8 7 4 18 10 ZZO 1029,0 20

tt = temperatuur
td = dauwpunt
ff = windsnelheid
fx = windstoten
dd = windrichting
ppp = luchtdruk
vv = zicht

Weerstations in de omgeving